• In Kazakhstan
  • List of Countries
  • For 7 days
  • Water Temperature
  • Weather Map
  • News
  • Weather Widgets
  • user-avatar
    Login

    Hourly Weather Egilsstaðir

    Today, 17 September, Tuesday

    Time Temperature Precipitation Wind Pressure Humidity
    00:00 +1°C° 0.1 mm 0 mps 658 mmHg 95%
    01:00 +1°C° 0.1 mm 0 mps 658 mmHg 96%
    02:00 +1°C° 0.2 mm 0 mps 658 mmHg 96%
    03:00 +1°C° 0.2 mm 0 mps 659 mmHg 96%
    04:00 +1°C° 0.2 mm 0 mps 659 mmHg 96%
    05:00 +1°C° 0.2 mm 0 mps 659 mmHg 95%
    06:00 +1°C° 0.2 mm 0 mps 659 mmHg 95%
    07:00 +1°C° 0.2 mm 0 mps 659 mmHg 94%
    08:00 +1°C° 0.2 mm 0 mps 660 mmHg 91%
    09:00 +1°C° 0.2 mm 0 mps 660 mmHg 88%
    10:00 +2°C° 0.2 mm 0 mps 661 mmHg 85%
    11:00 +3°C° 0.1 mm 1 mps 661 mmHg 82%
    12:00 +3°C° 0.1 mm 1 mps 661 mmHg 80%
    13:00 +4°C° 0.1 mm 1 mps 662 mmHg 77%
    14:00 +3°C° 0.1 mm 2 mps 662 mmHg 78%
    15:00 +3°C° 0.1 mm 2 mps 662 mmHg 78%
    16:00 +3°C° 0.1 mm 2 mps 663 mmHg 78%
    17:00 +2°C° 0 mm 2 mps 663 mmHg 82%
    18:00 +1°C° 0 mm 2 mps 663 mmHg 85%
    19:00 -1°C° 0 mm 2 mps 663 mmHg 89%
    20:00 -1°C° 0 mm 2 mps 663 mmHg 90%
    21:00 -2°C° 0 mm 2 mps 663 mmHg 91%
    22:00 -2°C° 0 mm 2 mps 663 mmHg 92%
    23:00 0°C° 0 mm 1 mps 663 mmHg 93%

    Tomorrow, 18 September, Wednesday

    Time Temperature Precipitation Wind Pressure Humidity
    00:00 -1°C° 0 mm 1 mps 664 mmHg 94%
    01:00 -1°C° 0 mm 1 mps 664 mmHg 95%
    02:00 -3°C° 0.4 mm 2 mps 664 mmHg 95%
    03:00 -2°C° 0.4 mm 2 mps 664 mmHg 96%
    04:00 -2°C° 0.4 mm 2 mps 665 mmHg 97%
    05:00 -2°C° 0 mm 2 mps 665 mmHg 95%
    06:00 -2°C° 0 mm 2 mps 665 mmHg 93%
    07:00 -1°C° 0 mm 3 mps 665 mmHg 92%
    08:00 -1°C° 0 mm 3 mps 666 mmHg 84%
    09:00 -1°C° 0 mm 4 mps 667 mmHg 77%
    10:00 0°C° 0 mm 5 mps 667 mmHg 70%
    11:00 0°C° 0 mm 5 mps 667 mmHg 68%
    12:00 0°C° 0 mm 5 mps 668 mmHg 66%
    13:00 -1°C° 0 mm 6 mps 668 mmHg 64%
    14:00 0°C° 0 mm 5 mps 668 mmHg 65%
    15:00 0°C° 0 mm 5 mps 668 mmHg 65%
    16:00 0°C° 0 mm 5 mps 668 mmHg 66%
    17:00 -2°C° 0 mm 4 mps 668 mmHg 73%
    18:00 -2°C° 0 mm 3 mps 668 mmHg 80%
    19:00 -5°C° 0 mm 3 mps 668 mmHg 87%
    20:00 -4°C° 0 mm 2 mps 669 mmHg 88%
    21:00 -4°C° 0 mm 2 mps 669 mmHg 90%
    22:00 -5°C° 0 mm 2 mps 669 mmHg 91%
    23:00 -5°C° 0 mm 2 mps 670 mmHg 91%

    Day after tomorrow, 19 September, Thursday

    Time Temperature Precipitation Wind Pressure Humidity
    00:00 -5°C° 0 mm 2 mps 670 mmHg 92%
    01:00 -5°C° 0 mm 2 mps 670 mmHg 92%
    02:00 -5°C° 0 mm 2 mps 670 mmHg 92%
    03:00 -5°C° 0 mm 2 mps 670 mmHg 92%
    04:00 -5°C° 0 mm 2 mps 671 mmHg 92%
    05:00 -5°C° 0 mm 2 mps 671 mmHg 91%
    06:00 -4°C° 0 mm 2 mps 671 mmHg 89%
    07:00 -4°C° 0 mm 2 mps 672 mmHg 88%
    08:00 -4°C° 0 mm 3 mps 672 mmHg 79%
    09:00 -2°C° 0 mm 3 mps 673 mmHg 71%
    10:00 -2°C° 0 mm 4 mps 673 mmHg 62%
    11:00 -1°C° 0 mm 4 mps 674 mmHg 61%
    12:00 -1°C° 0 mm 4 mps 674 mmHg 60%
    13:00 -1°C° 0 mm 4 mps 674 mmHg 59%
    14:00 -1°C° 0 mm 4 mps 674 mmHg 60%
    15:00 -1°C° 0 mm 4 mps 674 mmHg 62%
    16:00 -2°C° 0 mm 4 mps 674 mmHg 63%
    17:00 -2°C° 0 mm 3 mps 673 mmHg 69%
    18:00 -3°C° 0 mm 2 mps 673 mmHg 76%
    19:00 -2°C° 0 mm 1 mps 673 mmHg 82%
    20:00 -2°C° 0 mm 1 mps 673 mmHg 83%
    21:00 -2°C° 0 mm 1 mps 673 mmHg 84%
    22:00 -2°C° 0 mm 1 mps 673 mmHg 85%
    23:00 -2°C° 0 mm 1 mps 673 mmHg 85%

    20 September, Friday

    Time Temperature Precipitation Wind Pressure Humidity
    00:00 -2°C° 0 mm 1 mps 673 mmHg 85%
    01:00 -2°C° 0 mm 1 mps 672 mmHg 85%
    02:00 -2°C° 0 mm 1 mps 672 mmHg 86%
    03:00 -2°C° 0 mm 1 mps 671 mmHg 87%
    04:00 -2°C° 0 mm 1 mps 671 mmHg 88%
    05:00 -2°C° 0.5 mm 1 mps 670 mmHg 90%
    06:00 -4°C° 0.5 mm 2 mps 670 mmHg 93%
    07:00 -4°C° 0.5 mm 2 mps 669 mmHg 95%
    08:00 -3°C° 1.6 mm 2 mps 669 mmHg 96%
    09:00 -3°C° 1.6 mm 2 mps 668 mmHg 97%
    10:00 -3°C° 1.6 mm 2 mps 668 mmHg 97%
    11:00 -3°C° 1.5 mm 2 mps 667 mmHg 98%
    12:00 -2°C° 1.5 mm 2 mps 667 mmHg 99%
    13:00 -2°C° 1.5 mm 3 mps 667 mmHg 99%
    14:00 -1°C° 1.1 mm 3 mps 666 mmHg 99%
    15:00 0°C° 1.1 mm 3 mps 666 mmHg 99%
    16:00 0°C° 1.1 mm 3 mps 666 mmHg 99%
    17:00 +1°C° 1.5 mm 3 mps 666 mmHg 99%
    18:00 +1°C° 1.5 mm 3 mps 666 mmHg 99%
    19:00 +2°C° 1.5 mm 3 mps 666 mmHg 99%
    20:00 +2°C° 0.7 mm 3 mps 666 mmHg 99%
    21:00 +1°C° 0.7 mm 4 mps 666 mmHg 99%
    22:00 +1°C° 0.7 mm 4 mps 667 mmHg 99%
    23:00 +1°C° 0.9 mm 4 mps 667 mmHg 99%

    21 September, Saturday

    Time Temperature Precipitation Wind Pressure Humidity
    00:00 +1°C° 0.9 mm 5 mps 667 mmHg 99%
    01:00 +1°C° 0.9 mm 5 mps 667 mmHg 98%
    02:00 +1°C° 0.1 mm 5 mps 667 mmHg 98%
    03:00 +1°C° 0.1 mm 5 mps 667 mmHg 98%
    04:00 +1°C° 0.1 mm 5 mps 667 mmHg 98%
    05:00 +1°C° 0 mm 5 mps 668 mmHg 98%
    06:00 +1°C° 0 mm 5 mps 668 mmHg 97%
    07:00 +1°C° 0 mm 5 mps 668 mmHg 97%
    08:00 +2°C° 0 mm 5 mps 669 mmHg 97%
    09:00 +2°C° 0 mm 5 mps 669 mmHg 97%
    10:00 +2°C° 0 mm 5 mps 669 mmHg 97%
    11:00 +3°C° 0 mm 5 mps 669 mmHg 97%
    12:00 +3°C° 0 mm 5 mps 670 mmHg 96%
    13:00 +5°C° 0 mm 5 mps 670 mmHg 96%
    14:00 +3°C° 0 mm 5 mps 670 mmHg 96%
    15:00 +4°C° 0 mm 4 mps 670 mmHg 96%
    16:00 +4°C° 0 mm 4 mps 670 mmHg 96%
    17:00 +4°C° 0 mm 4 mps 670 mmHg 97%
    18:00 +4°C° 0 mm 4 mps 670 mmHg 97%
    19:00 +4°C° 0 mm 3 mps 670 mmHg 97%
    20:00 +3°C° 0 mm 3 mps 670 mmHg 97%
    21:00 +3°C° 0 mm 3 mps 670 mmHg 98%
    22:00 +3°C° 0 mm 3 mps 670 mmHg 98%
    23:00 +2°C° 0 mm 3 mps 669 mmHg 98%

    22 September, Sunday

    Time Temperature Precipitation Wind Pressure Humidity
    00:00 +2°C° 0 mm 3 mps 669 mmHg 98%
    01:00 +3°C° 0 mm 2 mps 669 mmHg 99%
    02:00 +3°C° 0 mm 2 mps 669 mmHg 98%
    03:00 +3°C° 0 mm 2 mps 669 mmHg 98%
    04:00 +3°C° 0 mm 2 mps 669 mmHg 98%
    05:00 +3°C° 0 mm 2 mps 669 mmHg 97%
    06:00 +3°C° 0 mm 2 mps 668 mmHg 97%
    07:00 +3°C° 0 mm 2 mps 668 mmHg 96%
    08:00 +3°C° 0 mm 3 mps 668 mmHg 91%
    09:00 +5°C° 0 mm 3 mps 669 mmHg 86%
    10:00 +7°C° 0 mm 4 mps 669 mmHg 81%
    11:00 +7°C° 0 mm 4 mps 669 mmHg 78%
    12:00 +8°C° 0 mm 5 mps 669 mmHg 75%
    13:00 +8°C° 0 mm 5 mps 669 mmHg 72%
    14:00 +8°C° 0 mm 4 mps 668 mmHg 75%
    15:00 +7°C° 0 mm 4 mps 668 mmHg 78%
    16:00 +8°C° 0 mm 3 mps 668 mmHg 81%
    17:00 +7°C° 0 mm 3 mps 667 mmHg 85%
    18:00 +5°C° 0 mm 2 mps 667 mmHg 88%
    19:00 +4°C° 0 mm 2 mps 666 mmHg 92%
    20:00 +4°C° 0 mm 2 mps 666 mmHg 93%
    21:00 +4°C° 0 mm 2 mps 666 mmHg 94%
    22:00 +4°C° 0 mm 2 mps 666 mmHg 94%
    23:00 +4°C° 0.1 mm 2 mps 666 mmHg 95%
    Show more